Location: Bühlhof
(48.7849°N, 8.6361°E)
Time: 22:27:36
(UTC+00:00)

NOSS 2-1 (E) - Pass Details

Date: 19 January 2026
Orbit: 385 x 1749 km, 63.3° (Epoch: 7 May)

Event Time Altitude Azimuth Distance (km) Brightness Sun altitude
Rises 18:23:47 0° 314° (NW) 2,386 7.2 -22.8°
Reaches altitude 10° 18:25:40 10° 310° (NW) 1,596 6.3 -23.1°
Maximum altitude 18:29:03 54° 232° (SW) 647 3.8 -23.6°
Enters shadow 18:29:59 43° 185° (S) 789 4.1 -23.8°
